EST,Max TemperatureF,Mean TemperatureF,Min TemperatureF,Max Dew PointF,MeanDew PointF,Min DewpointF,Max Humidity, Mean Humidity, Min Humidity, Max Sea Level PressureIn, Mean Sea Level PressureIn, Min Sea Level PressureIn, Max VisibilityMiles, Mean VisibilityMiles, Min VisibilityMiles, Max Wind SpeedMPH, Mean Wind SpeedMPH, Max Gust SpeedMPH,PrecipitationIn, CloudCover, Events, WindDirDegrees
2013-12-1,60,53,46,54,48,41,100,88,74,30.28,30.18,30.03,10,10,10,7,4,,0.00,6,Rain,356
2013-12-2,67,56,46,54,51,46,100,94,58,30.00,29.93,29.84,10,8,3,10,1,,0.00,4,,318
2013-12-3,66,55,44,63,51,45,100,99,87,29.98,29.92,29.88,10,7,0,8,1,,0.00,5,Fog-Rain,156
2013-12-4,75,62,50,69,57,50,100,99,75,30.11,30.03,29.97,10,6,0,8,1,,0.00,2,Fog,227
2013-12-5,80,68,55,72,60,55,100,97,73,30.16,30.10,30.07,10,5,0,8,1,,0.00,2,Fog,160
2013-12-6,82,70,58,75,64,59,100,97,72,30.16,30.12,30.07,10,7,0,13,1,17,0.00,1,Fog,178
2013-12-7,78,68,58,75,68,59,100,99,88,30.27,30.18,30.11,10,8,1,20,4,22,0.31,7,Rain,214
2013-12-8,59,54,50,59,54,50,100,100,99,30.32,30.25,30.20,10,5,2,10,6,,0.01,8,Rain,48
2013-12-9,77,64,51,74,59,51,100,100,89,30.21,30.13,30.06,10,3,0,7,2,,0.00,3,Fog,65
2013-12-10,75,60,45,75,65,43,100,97,74,30.30,30.07,30.03,10,8,0,21,6,34,0.68,6,Fog-Rain,231
2013-12-11,60,50,40,52,46,32,100,81,53,30.40,30.32,30.29,10,10,10,12,6,,0.00,5,,22
2013-12-12,59,46,32,44,37,32,100,77,43,30.40,30.35,30.28,10,10,7,12,4,,0.00,0,,343
2013-12-13,61,46,30,50,38,30,100,89,52,30.39,30.31,30.18,10,9,3,10,1,,0.00,1,,73
2013-12-14,71,60,48,72,65,49,100,100,92,30.18,29.94,29.85,10,8,1,14,4,21,1.23,7,Rain-Thunderstorm,180
2013-12-15,66,55,42,66,57,37,100,95,77,30.18,29.94,29.84,10,10,7,17,8,23,0.05,7,Rain,273
2013-12-16,61,47,33,44,38,33,100,82,51,30.25,30.22,30.18,10,10,10,8,3,,0.00,0,,303
2013-12-17,66,50,35,45,40,35,100,73,41,30.27,30.21,30.14,10,10,10,12,3,,0.00,0,,260
2013-12-18,59,46,33,39,35,31,99,66,36,30.33,30.26,30.16,10,10,10,12,5,20,0.00,0,,298
2013-12-19,68,49,30,56,44,30,100,88,60,30.36,30.29,30.24,10,10,10,9,1,,0.00,0,,79
2013-12-20,74,58,42,75,53,43,100,98,80,30.26,30.21,30.16,10,6,0,13,1,,0.00,0,Fog,156
2013-12-21,80,66,51,75,61,52,100,96,70,30.16,30.11,30.04,10,7,0,14,3,21,0.00,0,Fog,155
2013-12-22,80,74,68,76,72,68,100,97,84,30.12,30.09,30.05,10,10,10,15,7,23,0.00,5,,172
2013-12-23,77,67,56,75,65,57,100,99,89,30.16,30.11,30.05,10,9,2,15,7,21,0.37,7,Rain,272
2013-12-24,59,48,38,57,45,29,100,84,36,30.35,30.22,30.12,10,10,5,18,9,25,0.04,5,Rain,308
2013-12-25,51,43,35,39,35,29,85,70,58,30.42,30.35,30.31,10,10,10,13,7,,0.00,4,,19
2013-12-26,50,46,42,46,40,34,98,80,66,30.34,30.29,30.26,10,10,10,10,6,,0.00,8,Rain,354
2013-12-27,59,52,44,46,41,38,98,74,55,30.41,30.35,30.30,10,10,10,9,6,,0.00,6,,17
2013-12-28,62,51,40,57,52,36,100,91,68,30.37,30.17,30.01,10,8,2,9,6,,0.06,7,Rain,60
2013-12-29,71,62,52,72,64,51,100,99,92,30.03,29.91,29.85,10,8,1,17,6,25,1.22,6,Rain,198
2013-12-30,62,53,44,50,47,44,99,82,56,30.20,30.12,30.02,10,10,10,8,5,,0.00,4,,283
2013-12-31,56,51,46,49,47,43,99,83,66,30.37,30.30,30.20,10,10,10,9,5,,0.00,6,,307